Location: Baia Mare
(47.6567°N, 23.5850°E)
Time: 03:15:49
(UTC+02:00)

ISS - Pass Details

Date: 25 September 2018
Orbit: 402 x 408 km, 51.6° (Epoch: 18 November)

Event Time Altitude Azimuth Distance (km) Brightness Sun altitude
Rises 21:52:03 0° 265° (W) 2,343 0.9 -25.8°
Reaches altitude 10° 21:54:11 10° 272° (W) 1,481 -0.2 -26.1°
Enters shadow 21:55:48 25° 285° (WNW) 879 -1.5 -26.3°
